Weather History for Vigo, Spain

Change the Weather History Date:

Tuesday, March 11, 2014

  Actual Average Record
Temperature  
Mean Temperature 62 °F -  
Max Temperature 75 °F 59 °F 75 °F (2014)
Min Temperature 48 °F 44 °F 39 °F (2005)
Degree Days  
Heating Degree Days 4    
Growing Degree Days 12 (Base 50)    
Moisture  
Dew Point 39 °F    
Average Humidity 46    
Maximum Humidity 63    
Minimum Humidity 17    
Precipitation  
Precipitation 0.00 in 0.23 in - ()
Sea Level Pressure  
Sea Level Pressure 30.12 in    
Wind  
Wind Speed 3 mph ()    
Max Wind Speed 10 mph    
Max Gust Speed 18 mph    
Visibility 14.5 miles    
Events      
Averages and records for this station are not official NWS values.
T = Trace of Precipitation, MM = Missing Value Source: Averaged Metar Reports

Daily Weather History Graph

Daily Weather History Graph

Search for Another Location

Airport:

Trip Planner

Search our weather history database for the weather conditions in past years. The results will help you decide how hot, cold, wet, or windy it might be!

Date:

Astronomy

Mar. 11, 2014 Rise Set
Actual Time 7:53 AM CET 7:36 PM CET
Civil Twilight 7:25 AM CET 8:04 PM CET
Nautical Twilight 6:53 AM CET 8:36 PM CET
Astronomical Twilight 6:20 AM CET 9:09 PM CET
Moon 2:56 PM CET (3/11) 4:42 AM CET (3/11)
Length of Visible Light 12h 38m
Length of Day
11h 42m
Waxing Gibbous, 76% of the Moon is Illuminated
Mar 11
Waxing Gibbous
Mar 16
Full
Mar 24
Last Quarter
Mar 30
New
Apr 7
First Quarter

Hourly Weather History & Observations

Time (CET) Temp. Dew Point Humidity Pressure Visibility Wind Dir Wind Speed Gust Speed Precip Events Conditions
12:00 AM 55 °F 40 °F 45% 30.15 in - WSW 2.3 mph - -  
12:00 AM 55.4 °F 41.0 °F 58% 30.12 in - Variable 1.2 mph - N/A   Clear
12:30 AM 57.2 °F 39.2 °F 51% 30.12 in - Variable 1.2 mph - N/A   Clear
1:00 AM 54 °F 40 °F 47% 30.15 in 11 mi Calm Calm - -  
1:00 AM 55.4 °F 39.2 °F 54% 30.12 in - Calm Calm - N/A   Clear
1:30 AM 53.6 °F 39.2 °F 58% 30.12 in - Calm Calm - N/A   Clear
2:00 AM 54 °F 37 °F 41% 30.15 in - Calm Calm - -  
2:00 AM 53.6 °F 39.2 °F 58% 30.12 in - Calm Calm - N/A   Clear
2:30 AM 53.6 °F 41.0 °F 62% 30.12 in - Variable 1.2 mph - N/A   Clear
3:00 AM 53 °F 39 °F 47% 30.15 in - Calm Calm - -  
3:00 AM 55.4 °F 39.2 °F 54% 30.12 in - Calm Calm - N/A   Clear
3:30 AM 53.6 °F 39.2 °F 58% 30.12 in - Variable 1.2 mph - N/A   Clear
4:00 AM 52 °F 38 °F 48% 30.14 in 11 mi SW 1.2 mph - -  
4:00 AM 53.6 °F 39.2 °F 58% 30.12 in - Variable 1.2 mph - N/A   Clear
4:30 AM 51.8 °F 39.2 °F 62% 30.12 in - Calm Calm - N/A   Clear
5:00 AM 51 °F 37 °F 48% 30.14 in - SW 4.6 mph - -  
5:00 AM 51.8 °F 37.4 °F 58% 30.12 in - SW 3.5 mph - N/A   Clear
5:30 AM 51.8 °F 37.4 °F 58% 30.12 in - SW 4.6 mph - N/A   Clear
6:00 AM 49 °F 37 °F 53% 30.15 in - SSW 2.3 mph - -  
6:00 AM 50.0 °F 37.4 °F 62% 30.12 in - Variable 2.3 mph - N/A   Clear
6:30 AM 50.0 °F 37.4 °F 62% 30.12 in - SSW 3.5 mph - N/A   Clear
7:00 AM 49 °F 36 °F 50% 30.16 in 11 mi SSW 6.9 mph - -  
7:00 AM 50.0 °F 37.4 °F 62% 30.12 in - SSW 5.8 mph - N/A   Clear
7:30 AM 48.2 °F 35.6 °F 62% 30.12 in - SSW 6.9 mph - N/A   Clear
8:00 AM 48 °F 35 °F 50% 30.17 in - South 8.1 mph - -  
8:00 AM 48.2 °F 35.6 °F 62% 30.15 in - SSW 6.9 mph - N/A   Clear
8:30 AM 48.2 °F 35.6 °F 62% 30.15 in - SSW 3.5 mph - N/A   Clear
9:00 AM 51 °F 34 °F 41% 30.17 in - SSW 4.6 mph - -  
9:00 AM 50.0 °F 35.6 °F 58% 30.15 in - SSW 3.5 mph - N/A   Clear
9:30 AM 50.0 °F 35.6 °F 58% 30.15 in - SSW 10.4 mph - N/A   Clear
10:00 AM 54 °F 36 °F 39% 30.18 in 19 mi SSW 6.9 mph - -  
10:00 AM 51.8 °F 37.4 °F 58% 30.15 in - SSW 6.9 mph - N/A   Clear
10:30 AM 53.6 °F 37.4 °F 54% 30.15 in - SSW 6.9 mph - N/A   Clear
11:00 AM 58 °F 38 °F 35% 30.16 in - South 8.1 mph - -  
11:00 AM 55.4 °F 37.4 °F 51% 30.15 in - SSW 6.9 mph - N/A   Clear
11:30 AM 57.2 °F 37.4 °F 48% 30.15 in - SSW 8.1 mph - N/A   Clear
12:00 PM 63 °F 36 °F 26% 30.14 in - SSW 5.8 mph - -  
12:00 PM 60.8 °F 37.4 °F 42% 30.15 in - SSW 4.6 mph - N/A   Clear
12:30 PM 64.4 °F 41.0 °F 42% 30.15 in - South 4.6 mph - N/A   Clear
1:00 PM 68 °F 40 °F 24% 30.12 in 19 mi South 4.6 mph - -   Clear
1:00 PM 64.4 °F 42.8 °F 45% 30.12 in - SSW 4.6 mph - N/A   Clear
1:30 PM 68.0 °F 41.0 °F 37% 30.12 in - SSW 3.5 mph - N/A   Clear
2:00 PM 73 °F 38 °F 18% 30.09 in - South 2.3 mph - -  
2:00 PM 69.8 °F 37.4 °F 31% 30.12 in - Variable 2.3 mph - N/A   Clear
2:30 PM 69.8 °F 39.2 °F 33% 30.09 in - WSW 5.8 mph - N/A   Clear
3:00 PM 73 °F 37 °F 17% 30.07 in - North 4.6 mph - -  
3:00 PM 71.6 °F 39.2 °F 31% 30.09 in - Variable 4.6 mph 18.4 mph N/A   Clear
3:30 PM 69.8 °F 41.0 °F 35% 30.09 in - Variable 2.3 mph - N/A   Clear
4:00 PM 72 °F 40 °F 20% 30.06 in 19 mi North 3.5 mph - -  
4:00 PM 71.6 °F 42.8 °F 35% 30.06 in - North 3.5 mph - N/A   Clear
4:30 PM 71.6 °F 39.2 °F 31% 30.06 in - Variable 1.2 mph - N/A   Clear
5:00 PM 74 °F 38 °F 17% 30.06 in - WNW 1.2 mph - -  
5:00 PM 73.4 °F 39.2 °F 29% 30.06 in - Variable 1.2 mph - N/A   Clear
5:30 PM 69.8 °F 37.4 °F 31% 30.06 in - WSW 6.9 mph - N/A   Clear
6:00 PM 71 °F 39 °F 20% 30.06 in - WSW 8.1 mph - -  
6:00 PM 69.8 °F 39.2 °F 33% 30.06 in - WSW 6.9 mph - N/A   Clear
6:30 PM 68.0 °F 41.0 °F 37% 30.06 in - West 6.9 mph - N/A   Clear
7:00 PM 67 °F 40 °F 25% 30.07 in 19 mi West 8.1 mph - -  
7:00 PM 66.2 °F 41.0 °F 40% 30.06 in - West 6.9 mph - N/A   Clear
7:30 PM 62.6 °F 42.8 °F 48% 30.09 in - West 4.6 mph - N/A   Clear
8:00 PM 61 °F 42 °F 39% 30.10 in - NW 2.3 mph - -  
8:00 PM 60.8 °F 42.8 °F 52% 30.09 in - NW 3.5 mph - N/A   Clear
8:30 PM 62.6 °F 44.6 °F 52% 30.09 in - North 5.8 mph - N/A   Clear
9:00 PM 60 °F 44 °F 45% 30.11 in - North 4.6 mph - -  
9:00 PM 60.8 °F 44.6 °F 55% 30.09 in - North 4.6 mph - N/A   Clear
9:30 PM 59.0 °F 46.4 °F 63% 30.12 in - NNE 8.1 mph - N/A   Clear
10:00 PM 58 °F 44 °F 50% 30.12 in 7 mi North 6.9 mph - -  
10:00 PM 59.0 °F 44.6 °F 59% 30.12 in - North 5.8 mph - N/A   Clear
10:30 PM 59.0 °F 42.8 °F 55% 30.12 in - North 4.6 mph - N/A   Clear
11:00 PM 58 °F 43 °F 47% 30.13 in - NNE 2.3 mph - -  
11:00 PM 59.0 °F 44.6 °F 59% 30.12 in - Variable 2.3 mph - N/A   Clear
11:30 PM 55.4 °F 42.8 °F 63% 30.12 in - Calm Calm - N/A   Clear